Tracking 17842 objects as of 29-August-2016
HD Live streaming from Space Station
objects crossing your sky now

NSS 10 (AMC-12)

Track NSS 10 (AMC-12) now!
NSS 10 (AMC-12) is classified as:


NORAD ID: 28526
Int'l Code: 2005-003A
Perigee: 35,859.1 km
Apogee: 35,881.1 km
Inclination: 0.1 °
Period: 1,440.0 minutes
Semi major axis: 42241 km
RCS: 8.2875 m2 (large)
Launch date: February 3, 2005
Source: SOCIETE EUROPEENNE DES SATELLITES (SES)
Launch site: TYURATAM MISSILE AND SPACE COMPLEX (TTMTR)

72 C-band transponders.
Your satellite tracking list
Your tracking list is empty





NASA's NSSDC Master Catalog

Two Line Element Set (TLE):
1 28526U 05003A   16241.53171664 -.00000283  00000-0  00000+0 0  9991
2 28526   0.0594 296.6663 0002607 218.0512 336.4178  1.00271457 42426
Source of the keplerian elements: AFSPC

N2YO: 588